KINEIS-3D

Last updated on Thu Sep 24 2026 00:03:12 GMT+0000 (Coordinated Universal Time)

1 61221U 24172B 26266.20217442 .00001263 00000+0 20751-3 0 9991 2 61221 98.0408 355.0576 0001701 144.9197 215.2122 14.72330576107773
UTC large
Height (km)
Speed (km/s)
/
Latitude / Longitude
Inclination (degrees)
Orbital Period (minutes)
Azimuth
Elevation
Range (km)
Doppler Factor

Next 0 passes for location: London (51.5072 / 0.1276)

No passes found over London.
KINEIS-3D